Location: Hartford
(41.7640°N, 72.6860°W)
Time: 02:15:22
(UTC-04:00)

ISS - All Passes

Search period start: 28 July 2014 00:00
Search period end: 07 August 2014 00:00
Orbit: 411 x 420 km, 51.6° (Epoch: 27 July)

Date Brightness Start Highest point End Pass type
(mag) Time Alt. Az. Time Alt. Az. Time Alt. Az.
28 Jul - 01:20:11 10° W 01:23:18 35° NNW 01:26:26 10° NE visible
28 Jul - 02:58:35 10° NW 03:00:45 16° N 03:02:55 10° NE visible
28 Jul - 04:35:54 10° NW 04:38:25 19° NNE 04:40:56 10° ENE visible
28 Jul - 06:12:15 10° NW 06:15:36 69° NNE 06:18:57 10° ESE daylight
28 Jul - 07:50:02 10° W 07:51:57 14° SW 07:53:51 10° SSW daylight
28 Jul - 22:55:31 10° S 22:57:57 19° SE 23:00:23 10° E night (unlit)
29 Jul - 00:31:08 10° WSW 00:34:24 53° NNW 00:37:43 10° NE visible
29 Jul - 02:09:19 10° WNW 02:11:42 18° NNW 02:14:04 10° NNE visible
29 Jul - 03:47:07 10° NNW 03:49:23 17° N 03:51:38 10° NE visible
29 Jul - 05:23:30 10° NW 05:26:45 43° NNE 05:29:58 10° ESE daylight
29 Jul - 07:00:31 10° WNW 07:03:19 25° SW 07:06:07 10° SSE daylight
29 Jul - 22:08:29 10° SE 22:09:21 11° SE 22:10:13 10° ESE night (unlit)
29 Jul - 23:42:14 10° SW 23:45:34 89° NW 23:48:56 10° NE night (unlit)
30 Jul - 01:20:01 10° WNW 01:22:40 21° NNW 01:25:19 10° NE visible
30 Jul - 02:58:13 10° NW 03:00:18 15° N 03:02:24 10° NE visible
30 Jul - 04:34:48 10° NW 04:37:49 30° NNE 04:40:50 10° E visible
30 Jul - 06:11:25 10° WNW 06:14:38 43° SW 06:17:49 10° SSE daylight
30 Jul - 22:53:33 10° SW 22:56:47 52° SE 23:00:04 10° ENE night (unlit)
31 Jul - 00:30:45 10° W 00:33:40 27° NNW 00:36:36 10° NE visible
31 Jul - 02:09:09 10° NW 02:11:13 15° N 02:13:17 10° NE visible
31 Jul - 03:46:05 10° NW 03:48:50 23° NNE 03:51:35 10° ENE visible
31 Jul - 05:22:30 10° WNW 05:25:52 77° SW 05:29:13 10° SE daylight
31 Jul - 22:05:09 10° SSW 22:08:04 29° SE 22:11:01 10° ENE night (unlit)
31 Jul - 23:41:34 10° W 23:44:43 38° NNW 23:47:53 10° NE visible
01 Aug - 01:19:57 10° NW 01:22:08 16° N 01:24:19 10° NNE visible
01 Aug - 02:57:21 10° NNW 02:59:48 19° NNE 03:02:16 10° ENE visible
01 Aug - 04:33:41 10° NW 04:37:02 63° NNE 04:40:22 10° ESE visible
01 Aug - 06:11:16 10° W 06:13:25 16° SW 06:15:34 10° S daylight
01 Aug - 21:17:10 10° S 21:19:24 17° SE 21:21:39 10° E visible
01 Aug - 22:52:31 10° WSW 22:55:49 59° NNW 22:59:08 10° NE visible
02 Aug - 00:30:39 10° WNW 00:33:04 18° NNW 00:35:29 10° NNE visible
02 Aug - 02:08:31 10° NNW 02:10:44 16° N 02:12:57 10° NE visible
02 Aug - 03:44:56 10° NW 03:48:08 40° NNE 03:51:19 10° E visible
02 Aug - 05:21:51 10° WNW 05:24:45 27° SW 05:27:39 10° SSE daylight
02 Aug - 22:03:39 10° SW 22:06:58 83° SE 22:10:19 10° ENE visible
02 Aug - 23:41:20 10° WNW 23:44:01 22° NNW 23:46:43 10° NE visible
03 Aug - 01:19:34 10° NW 01:21:38 15° N 01:23:43 10° NE visible
03 Aug - 02:56:13 10° NW 02:59:11 28° NNE 03:02:08 10° E visible
03 Aug - 04:32:46 10° WNW 04:36:01 48° SW 04:39:16 10° SE visible
03 Aug - 21:14:59 10° SSW 21:18:11 46° SE 21:21:24 10° ENE visible
03 Aug - 22:52:03 10° W 22:55:00 28° NNW 22:57:59 10° NE visible
04 Aug - 00:30:28 10° NW 00:32:32 15° N 00:34:36 10° NE visible
04 Aug - 02:07:29 10° NW 02:10:10 22° NNE 02:12:51 10° ENE visible
04 Aug - 03:43:51 10° NW 03:47:14 86° SSW 03:50:35 10° SE visible
04 Aug - 05:23:07 10° WSW 05:23:25 10° SW 05:23:44 10° SW daylight
04 Aug - 20:26:38 10° SSW 20:29:27 26° SE 20:32:17 10° ENE daylight
04 Aug - 22:02:52 10° W 22:06:02 41° NNW 22:09:14 10° NE visible
04 Aug - 23:41:13 10° NW 23:43:26 16° N 23:45:39 10° NNE visible
05 Aug - 01:18:42 10° NNW 01:21:06 18° NNE 01:23:30 10° ENE visible
05 Aug - 02:55:02 10° NW 02:58:22 57° NNE 03:01:40 10° ESE night (unlit)
05 Aug - 04:32:26 10° W 04:34:48 18° SW 04:37:08 10° S visible
05 Aug - 19:38:46 10° SSE 19:40:46 15° SE 19:42:47 10° E daylight
05 Aug - 21:13:50 10° WSW 21:17:08 65° NNW 21:20:28 10° NE visible
05 Aug - 22:51:53 10° WNW 22:54:20 19° NNW 22:56:48 10° NNE visible
06 Aug - 00:29:50 10° NNW 00:32:00 16° N 00:34:10 10° NE visible
06 Aug - 02:06:17 10° NW 02:09:26 37° NNE 02:12:35 10° E night (unlit)
06 Aug - 03:43:05 10° WNW 03:46:06 30° SW 03:49:05 10° SSE night (unlit)
06 Aug - 20:24:58 10° SW 20:28:16 74° SE 20:31:36 10° ENE visible
06 Aug - 22:02:32 10° WNW 22:05:16 23° NNW 22:08:01 10° NE visible
06 Aug - 23:40:50 10° NW 23:42:53 15° N 23:44:56 10° NE visible
